Time[GMT],salinity[psu](1m),sigma_t[kg/m^3](1m),conductivity[msiemens/cm](1m),temperature[C](1m)
2008-10-01 15:00,30.142,22.072,38.173,15.74
2008-10-01 16:00,30.147,22.085,38.144,15.70
2008-10-01 17:00,30.180,22.111,38.182,15.70
2008-10-01 18:00,30.250,22.164,38.261,15.70
2008-10-01 20:00,30.315,22.220,38.309,15.67
2008-10-01 21:00,30.330,22.239,38.300,15.64
2008-10-01 22:00,30.339,22.256,38.266,15.59
2008-10-01 23:00,30.328,22.252,38.236,15.57
2008-10-02 00:00,30.292,22.231,38.170,15.54
2008-10-02 01:00,30.286,22.237,38.119,15.49
2008-10-02 02:00,30.315,22.255,38.170,15.51
2008-10-02 03:00,30.314,22.263,38.134,15.47
2008-10-02 04:00,30.349,22.285,38.190,15.49
2008-10-02 05:00,30.387,22.321,38.207,15.46
2008-10-02 06:00,30.385,22.318,38.214,15.47
2008-10-02 07:00,30.285,22.239,38.110,15.48
2008-10-02 08:00,30.257,22.199,38.147,15.56
2008-10-02 09:00,30.212,22.158,38.122,15.59
2008-10-02 10:00,30.182,22.135,38.088,15.59
2008-10-02 11:00,30.246,22.198,38.109,15.53
2008-10-02 12:00,30.300,22.269,38.048,15.39
2008-10-02 13:00,30.274,22.238,38.062,15.44
2008-10-02 14:00,30.313,22.268,38.106,15.44
2008-10-02 15:00,30.464,22.397,38.224,15.38
2008-10-02 16:00,30.587,22.511,38.284,15.29
2008-10-02 19:00,30.724,22.649,38.307,15.14
2008-10-02 21:00,30.934,22.872,38.286,14.85
2008-10-02 22:00,30.919,22.878,38.199,14.77
2008-10-02 23:00,30.936,22.907,38.147,14.69
2008-10-03 00:00,31.042,23.014,38.158,14.57
2008-10-03 01:00,31.156,23.127,38.178,14.45
2008-10-03 02:00,31.157,23.035,38.569,14.89
2008-10-03 03:00,30.901,22.872,38.143,14.73
2008-10-03 04:00,30.829,22.804,38.116,14.79
2008-10-03 06:00,,,,
2008-10-03 07:00,30.788,22.762,38.115,14.84
2008-10-03 08:00,30.803,22.788,38.070,14.77
2008-10-03 09:00,30.845,22.844,38.020,14.66
2008-10-03 10:00,30.957,22.957,38.029,14.53
2008-10-03 11:00,31.104,23.070,38.192,14.53
2008-10-03 12:00,31.204,23.147,38.302,14.53
2008-10-03 13:00,31.151,23.158,38.022,14.28
2008-10-03 14:00,31.153,23.161,38.015,14.27
2008-10-03 15:00,31.156,23.158,38.045,14.30
2008-10-03 16:00,31.101,23.124,37.950,14.26
2008-10-03 18:00,31.063,23.113,37.829,14.17
2008-10-03 19:00,31.098,23.150,37.823,14.12
2008-10-03 20:00,31.165,23.214,37.843,14.06
2008-10-03 22:00,31.203,23.296,37.655,13.80
2008-10-03 23:00,31.269,23.369,37.630,13.69
2008-10-04 00:00,31.274,23.403,37.503,13.54
2008-10-04 01:00,31.273,23.428,37.387,13.41
2008-10-04 02:00,31.301,23.367,37.779,13.82
2008-10-04 03:00,31.299,23.350,37.848,13.90
2008-10-04 04:00,31.312,23.364,37.844,13.88
2008-10-04 05:00,31.313,23.373,37.810,13.84
2008-10-04 06:00,31.307,23.370,37.794,13.83
2008-10-04 07:00,31.311,23.370,37.817,13.85
2008-10-04 08:00,31.309,23.372,37.797,13.83
2008-10-04 09:00,31.264,23.363,37.633,13.70
2008-10-04 10:00,31.260,23.328,37.770,13.86
2008-10-04 11:00,31.265,23.382,37.555,13.61
2008-10-04 12:00,31.232,23.453,37.088,13.12
2008-10-04 14:00,,,,
2008-10-04 15:00,31.283,23.438,37.389,13.40
2008-10-04 16:00,31.313,23.364,37.845,13.88
2008-10-04 17:00,31.282,23.353,37.759,13.82
2008-10-04 18:00,31.284,23.350,37.778,13.84
2008-10-04 19:00,31.282,23.347,37.785,13.85
2008-10-04 20:00,31.303,23.359,37.825,13.87
2008-10-04 21:00,31.316,23.361,37.875,13.91
2008-10-04 22:00,31.326,23.358,37.930,13.96
2008-10-04 23:00,31.272,23.415,37.439,13.47
2008-10-05 00:00,31.275,23.447,37.310,13.32
2008-10-05 01:00,31.285,23.423,37.461,13.48
2008-10-05 02:00,31.292,23.391,37.637,13.67
2008-10-05 03:00,31.276,23.406,37.496,13.53
2008-10-05 04:00,31.304,23.422,37.553,13.56
2008-10-05 05:00,31.331,23.409,37.732,13.73
2008-10-05 06:00,31.333,23.414,37.716,13.71
2008-10-05 07:00,31.331,23.414,37.705,13.70
2008-10-05 08:00,31.327,23.430,37.622,13.61
2008-10-05 09:00,31.320,23.521,37.182,13.12
2008-10-05 10:00,31.329,23.550,37.095,13.01
2008-10-05 11:00,31.320,23.511,37.226,13.17
2008-10-05 12:00,31.310,23.502,37.224,13.18
2008-10-05 13:00,31.314,23.487,37.307,13.27
2008-10-05 14:00,31.323,23.447,37.529,13.51
2008-10-05 15:00,31.300,23.413,37.575,13.59
2008-10-05 16:00,31.298,23.409,37.581,13.60
2008-10-05 17:00,31.126,23.227,37.616,13.85
2008-10-05 18:00,31.195,23.318,37.523,13.66
2008-10-05 19:00,31.217,23.339,37.529,13.64
2008-10-05 20:00,31.295,23.387,37.667,13.70
2008-10-05 21:00,31.324,23.397,37.751,13.76
2008-10-05 22:00,31.383,23.625,36.993,12.83
2008-10-05 23:00,31.336,23.566,37.049,12.95
2008-10-06 00:00,31.329,23.553,37.077,12.99
2008-10-06 01:00,31.352,23.596,36.987,12.86
2008-10-06 02:00,31.259,23.497,37.011,13.00
2008-10-06 03:00,31.136,23.337,37.169,13.33
2008-10-06 04:00,31.380,23.599,37.105,12.96
2008-10-06 05:00,31.345,23.485,37.455,13.40
2008-10-06 06:00,31.317,23.444,37.514,13.50
2008-10-06 07:00,31.307,23.446,37.459,13.45
2008-10-06 08:00,31.301,23.438,37.470,13.47
2008-10-06 09:00,31.308,23.449,37.451,13.44
2008-10-06 10:00,31.297,23.445,37.422,13.42
2008-10-06 11:00,,,,
2008-10-06 12:00,31.298,23.461,37.352,13.34
2008-10-06 13:00,31.298,23.461,37.352,13.34
2008-10-06 14:00,31.243,23.405,37.355,13.41
2008-10-06 15:00,31.163,23.287,37.515,13.69
2008-10-06 16:00,31.157,23.226,37.755,13.97
2008-10-06 17:00,31.148,23.207,37.798,14.03
2008-10-06 19:00,31.115,23.171,37.806,14.08
2008-10-06 20:00,31.093,23.161,37.756,14.05
2008-10-06 21:00,31.050,23.136,37.674,14.01
2008-10-06 22:00,31.057,23.155,37.620,13.94
2008-10-06 23:00,31.167,23.326,37.361,13.51
2008-10-07 00:00,31.254,23.460,37.155,13.17
2008-10-07 01:00,31.283,23.508,37.072,13.04
2008-10-07 02:00,31.260,23.473,37.127,13.13
2008-10-07 03:00,31.188,23.352,37.339,13.46
2008-10-07 04:00,31.189,23.311,37.525,13.67
2008-10-07 05:00,31.280,23.392,37.580,13.62
2008-10-07 06:00,31.265,23.366,37.625,13.69
2008-10-07 07:00,31.333,23.422,37.681,13.67
2008-10-07 08:00,31.377,23.469,37.676,13.61
2008-10-07 09:00,31.406,23.495,37.689,13.59
2008-10-07 10:00,31.392,23.494,37.630,13.54
2008-10-07 11:00,31.392,23.500,37.603,13.51
2008-10-07 12:00,31.388,23.511,37.537,13.44
2008-10-07 16:00,31.357,23.469,37.583,13.53
2008-10-07 21:00,31.444,23.423,38.174,14.09
2008-10-07 22:00,31.450,23.442,38.119,14.02
2008-10-07 23:00,31.456,23.450,38.107,14.00
2008-10-08 00:00,31.447,23.448,38.080,13.98
2008-10-08 01:00,31.447,23.456,38.044,13.94
2008-10-08 02:00,31.459,23.473,38.021,13.90
2008-10-08 03:00,31.460,23.482,37.987,13.86
2008-10-08 04:00,31.449,23.482,37.940,13.82
2008-10-08 05:00,31.425,23.473,37.869,13.77
2008-10-08 06:00,31.402,23.457,37.835,13.76
2008-10-08 07:00,31.379,23.434,37.837,13.79
2008-10-08 08:00,31.380,23.443,37.803,13.75
2008-10-08 09:00,31.382,23.453,37.770,13.71
2008-10-08 10:00,31.397,23.472,37.750,13.67
2008-10-08 11:00,31.431,23.502,37.769,13.65
2008-10-08 12:00,31.436,23.504,37.783,13.66
2008-10-08 13:00,31.436,23.502,37.792,13.67
2008-10-08 14:00,31.421,23.480,37.820,13.72
2008-10-08 21:00,31.260,23.390,37.496,13.55
2008-10-08 22:00,31.193,23.334,37.442,13.57
2008-10-08 23:00,31.190,23.391,37.175,13.27
2008-10-09 00:00,31.221,23.436,37.111,13.16
2008-10-09 01:00,31.276,23.461,37.249,13.25
2008-10-09 02:00,31.345,23.485,37.455,13.40
2008-10-09 03:00,31.364,23.488,37.529,13.46
2008-10-09 04:00,31.370,23.482,37.579,13.51
2008-10-09 05:00,31.375,23.483,37.603,13.53
2008-10-09 06:00,31.385,23.490,37.613,13.53
2008-10-09 07:00,31.368,23.486,37.560,13.49
2008-10-09 08:00,31.348,23.478,37.503,13.45
2008-10-09 09:00,31.329,23.473,37.438,13.40
2008-10-09 10:00,31.274,23.478,37.168,13.16
2008-10-09 11:00,31.247,23.466,37.095,13.11
2008-10-09 12:00,31.249,23.468,37.097,13.11
2008-10-09 13:00,31.260,23.453,37.214,13.23
2008-10-09 14:00,31.285,23.457,37.312,13.31
2008-10-09 15:00,31.334,23.449,37.567,13.54
2008-10-09 19:00,31.300,23.355,37.831,13.88
2008-10-09 21:00,31.307,23.358,37.848,13.89
2008-10-09 22:00,31.296,23.356,37.809,13.86
2008-10-09 23:00,31.295,23.361,37.781,13.83
2008-10-10 00:00,31.302,23.372,37.762,13.80
2008-10-10 01:00,31.315,23.380,37.785,13.81
2008-10-10 02:00,31.321,23.393,37.757,13.77
2008-10-10 03:00,31.348,23.409,37.803,13.79
2008-10-10 04:00,31.355,23.409,37.838,13.82
2008-10-10 05:00,31.356,23.414,37.821,13.80
2008-10-10 06:00,31.357,23.418,37.804,13.78
2008-10-10 07:00,31.337,23.416,37.730,13.72
2008-10-10 08:00,31.338,23.418,37.722,13.71
2008-10-10 09:00,31.345,23.426,37.721,13.70
2008-10-10 10:00,31.347,23.437,37.678,13.65
2008-10-10 11:00,31.346,23.451,37.616,13.58
2008-10-10 12:00,31.351,23.454,37.621,13.58
2008-10-10 13:00,31.354,23.443,37.686,13.65
2008-10-10 21:00,31.355,23.338,38.148,14.17
2008-10-10 22:00,31.353,23.359,38.048,14.06
2008-10-10 23:00,31.339,23.368,37.944,13.96
2008-10-11 00:00,31.321,23.377,37.827,13.85
2008-10-11 01:00,31.324,23.392,37.778,13.79
2008-10-11 02:00,31.358,23.383,37.965,13.96
2008-10-11 03:00,31.365,23.387,37.982,13.97
2008-10-11 04:00,31.383,23.402,37.992,13.96
2008-10-11 05:00,31.380,23.398,37.998,13.97
2008-10-11 06:00,31.370,23.401,37.943,13.92
2008-10-11 07:00,31.368,23.407,37.905,13.88
2008-10-11 08:00,31.374,23.409,37.920,13.89
2008-10-11 09:00,31.385,23.439,37.844,13.79
2008-10-11 10:00,31.311,23.441,37.498,13.49
2008-10-11 11:00,31.317,23.436,37.549,13.54
2008-10-11 12:00,31.277,23.417,37.453,13.48
2008-10-11 21:00,31.320,23.257,38.341,14.43
2008-10-11 22:00,31.324,23.308,38.141,14.20
2008-10-11 23:00,31.302,23.318,38.002,14.07
2008-10-12 00:00,31.309,23.341,37.929,13.98
2008-10-12 01:00,31.193,23.248,37.821,14.00
2008-10-12 02:00,31.148,23.221,37.736,13.96
2008-10-12 03:00,31.176,23.253,37.723,13.91
2008-10-12 04:00,31.171,23.259,37.673,13.86
2008-10-12 05:00,31.126,23.194,37.757,14.01
2008-10-12 07:00,,,,
2008-10-12 08:00,31.163,23.263,37.620,13.81
2008-10-12 09:00,31.205,23.309,37.604,13.74
2008-10-12 10:00,31.247,23.342,37.650,13.74
2008-10-12 11:00,31.271,23.364,37.658,13.72
2008-10-12 12:00,31.275,23.372,37.645,13.70
2008-10-12 14:00,31.292,23.372,37.716,13.76
2008-10-12 18:00,31.128,22.987,38.643,15.01
2008-10-12 21:00,31.097,23.006,38.432,14.81
2008-10-12 22:00,31.095,23.061,38.190,14.54
2008-10-12 23:00,31.097,23.094,38.060,14.39
2008-10-13 00:00,31.099,23.112,37.992,14.31
2008-10-13 01:00,31.102,23.116,37.986,14.30
2008-10-13 02:00,31.099,23.124,37.939,14.25
2008-10-13 03:00,31.100,23.133,37.904,14.21
2008-10-13 04:00,31.099,23.153,37.815,14.11
2008-10-13 05:00,31.100,23.164,37.772,14.06
2008-10-13 06:00,31.108,23.154,37.852,14.14
2008-10-13 07:00,31.108,23.149,37.869,14.16
2008-10-13 08:00,31.116,23.166,37.834,14.11
2008-10-13 09:00,31.126,23.176,37.836,14.10
2008-10-13 10:00,31.129,23.182,37.822,14.08
2008-10-13 11:00,31.116,23.172,37.807,14.08
2008-10-13 12:00,31.117,23.175,37.800,14.07
2008-10-13 13:00,31.114,23.170,37.805,14.08
2008-10-13 14:00,31.104,23.148,37.856,14.15
2008-10-13 15:00,31.109,23.152,37.861,14.15
2008-10-13 16:00,31.112,23.146,37.900,14.19
2008-10-13 17:00,31.111,23.133,37.952,14.25
2008-10-13 19:00,31.142,23.120,38.145,14.43
2008-10-13 21:00,31.147,23.136,38.097,14.37
2008-10-13 22:00,31.144,23.136,38.085,14.36
2008-10-13 23:00,31.140,23.139,38.054,14.33
2008-10-14 00:00,31.138,23.142,38.034,14.31
2008-10-14 01:00,31.136,23.142,38.023,14.30
2008-10-14 02:00,31.141,23.152,38.002,14.27
2008-10-14 03:00,31.139,23.153,37.991,14.26
2008-10-14 04:00,31.141,23.157,37.985,14.25
2008-10-14 05:00,31.154,23.163,38.017,14.27
2008-10-14 06:00,31.168,23.179,38.005,14.24
2008-10-14 07:00,31.164,23.174,38.010,14.25
2008-10-14 08:00,31.177,23.184,38.024,14.25
2008-10-14 09:00,31.169,23.178,38.015,14.25
2008-10-14 10:00,31.172,23.176,38.036,14.27
2008-10-14 11:00,31.176,23.181,38.032,14.26
2008-10-14 12:00,31.176,23.180,38.041,14.27
2008-10-14 13:00,31.185,23.184,38.059,14.28
2008-10-14 14:00,31.186,23.177,38.096,14.32
2008-10-14 18:00,31.194,23.167,38.176,14.40
2008-10-14 20:00,31.196,23.163,38.195,14.42
2008-10-14 21:00,31.184,23.150,38.200,14.44
2008-10-14 22:00,31.188,23.155,38.195,14.43
2008-10-14 23:00,31.187,23.159,38.177,14.41
2008-10-15 01:00,31.189,23.166,38.152,14.38
2008-10-15 02:00,31.189,23.173,38.126,14.35
2008-10-15 03:00,31.200,23.185,38.120,14.33
2008-10-15 04:00,,,,
2008-10-15 05:00,31.198,23.190,38.091,14.30
2008-10-15 06:00,31.186,23.191,38.034,14.25
2008-10-15 07:00,31.189,23.204,37.993,14.20
2008-10-15 08:00,31.193,23.217,37.953,14.15
2008-10-15 09:00,31.199,23.228,37.933,14.12
2008-10-15 10:00,31.199,23.234,37.907,14.09
2008-10-15 11:00,31.192,23.221,37.935,14.13
2008-10-15 12:00,31.196,23.215,37.974,14.17
2008-10-15 13:00,31.186,23.195,38.016,14.23
2008-10-15 14:00,31.195,23.188,38.088,14.30
2008-10-15 18:00,31.200,23.144,38.297,14.53
2008-10-15 21:00,31.244,23.189,38.302,14.48
2008-10-15 22:00,31.254,23.215,38.233,14.39
2008-10-15 23:00,31.246,23.231,38.126,14.28
2008-10-16 00:00,31.245,23.230,38.125,14.28
2008-10-16 01:00,31.235,23.223,38.114,14.28
2008-10-16 02:00,31.237,23.229,38.099,14.26
2008-10-16 03:00,31.244,23.238,38.089,14.24
2008-10-16 04:00,31.241,23.235,38.085,14.24
2008-10-16 05:00,31.242,23.241,38.069,14.22
2008-10-16 06:00,31.245,23.239,38.090,14.24
2008-10-16 07:00,31.249,23.244,38.085,14.23
2008-10-16 08:00,31.252,23.248,38.080,14.22
2008-10-16 09:00,31.253,23.249,38.081,14.22
2008-10-16 10:00,31.258,23.253,38.086,14.22
2008-10-16 11:00,31.255,23.254,38.065,14.20
2008-10-16 12:00,31.257,23.256,38.067,14.20
2008-10-16 13:00,31.265,23.267,38.059,14.18
2008-10-16 14:00,31.267,23.268,38.061,14.18
2008-10-16 15:00,31.272,23.259,38.119,14.24
2008-10-16 16:00,31.284,23.269,38.133,14.24
2008-10-16 17:00,31.286,23.272,38.126,14.23
2008-10-16 18:00,31.290,23.271,38.148,14.25
2008-10-16 19:00,31.293,23.268,38.178,14.28
2008-10-16 20:00,31.288,23.263,38.172,14.28
2008-10-16 21:00,31.284,23.259,38.177,14.29
2008-10-16 22:00,31.290,23.263,38.184,14.29
2008-10-16 23:00,31.295,23.259,38.225,14.33
2008-10-17 00:00,31.295,23.261,38.216,14.32
2008-10-17 01:00,31.293,23.266,38.187,14.29
2008-10-17 02:00,31.294,23.277,38.144,14.24
2008-10-17 03:00,31.294,23.287,38.099,14.19
2008-10-17 04:00,31.290,23.286,38.086,14.18
2008-10-17 05:00,31.295,23.291,38.082,14.17
2008-10-17 06:00,31.299,23.301,38.060,14.14
2008-10-17 07:00,,,,
2008-10-17 08:00,31.306,23.315,38.033,14.10
2008-10-17 09:00,31.316,23.330,38.008,14.06
2008-10-17 10:00,31.323,23.342,37.989,14.03
2008-10-17 11:00,31.329,23.347,37.996,14.03
2008-10-17 12:00,31.335,23.355,37.984,14.01
2008-10-17 13:00,31.340,23.363,37.972,13.99
2008-10-17 14:00,31.329,23.351,37.978,14.01
2008-10-17 15:00,31.338,23.355,37.996,14.02
2008-10-17 16:00,31.339,23.352,38.015,14.04
2008-10-17 17:00,31.344,23.350,38.047,14.07
2008-10-17 19:00,31.344,23.338,38.101,14.13
2008-10-17 20:00,31.350,23.332,38.152,14.18
2008-10-17 21:00,31.351,23.331,38.162,14.19
2008-10-17 22:00,31.353,23.336,38.146,14.17
2008-10-17 23:00,31.344,23.333,38.118,14.15
2008-10-18 00:00,31.348,23.341,38.105,14.13
2008-10-18 01:00,31.350,23.342,38.107,14.13
2008-10-18 02:00,31.342,23.336,38.098,14.13
2008-10-18 03:00,31.346,23.347,38.067,14.09
2008-10-18 04:00,31.349,23.358,38.035,14.05
2008-10-18 05:00,31.354,23.370,38.005,14.01
2008-10-18 06:00,31.360,23.385,37.967,13.96
2008-10-18 07:00,31.366,23.393,37.956,13.94
2008-10-18 08:00,31.366,23.401,37.920,13.90
2008-10-18 09:00,31.370,23.412,37.889,13.86
2008-10-18 10:00,31.373,23.419,37.875,13.84
2008-10-18 11:00,31.377,23.432,37.835,13.79
2008-10-18 12:00,31.377,23.436,37.817,13.77
2008-10-18 13:00,31.381,23.443,37.804,13.75
2008-10-18 14:00,31.377,23.446,37.773,13.72
2008-10-18 15:00,31.387,23.464,37.739,13.67
2008-10-18 16:00,31.385,23.464,37.728,13.66
2008-10-18 17:00,31.385,23.467,37.720,13.65
2008-10-18 18:00,31.392,23.474,37.718,13.64
2008-10-18 19:00,,,,
2008-10-18 20:00,31.391,23.475,37.708,13.63
2008-10-18 21:00,31.406,23.500,37.662,13.56
2008-10-18 22:00,31.411,23.512,37.632,13.52
2008-10-18 23:00,31.409,23.517,37.604,13.49
2008-10-19 00:00,31.411,23.520,37.597,13.48
2008-10-19 01:00,31.414,23.524,37.591,13.47
2008-10-19 02:00,31.413,23.534,37.546,13.42
2008-10-19 03:00,31.382,23.502,37.548,13.46
2008-10-19 04:00,31.380,23.499,37.555,13.47
2008-10-19 05:00,31.364,23.480,37.564,13.50
2008-10-19 06:00,31.377,23.500,37.534,13.45
2008-10-19 07:00,31.380,23.504,37.528,13.44
2008-10-19 08:00,31.386,23.513,37.517,13.42
2008-10-19 09:00,31.379,23.510,37.501,13.41
2008-10-19 10:00,31.376,23.508,37.498,13.41
2008-10-19 11:00,31.379,23.510,37.501,13.41
2008-10-19 12:00,31.377,23.512,37.481,13.39
2008-10-19 13:00,31.379,23.520,37.457,13.36
2008-10-19 14:00,31.391,23.537,37.434,13.32
2008-10-19 15:00,31.397,23.547,37.414,13.29
2008-10-19 16:00,31.396,23.553,37.387,13.26
2008-10-19 17:00,31.409,23.567,37.383,13.24
2008-10-19 18:00,31.403,23.561,37.376,13.24
2008-10-19 19:00,31.403,23.563,37.367,13.23
2008-10-19 20:00,31.399,23.557,37.381,13.25
2008-10-19 21:00,31.385,23.544,37.375,13.26
2008-10-19 22:00,31.377,23.542,37.349,13.24
2008-10-19 23:00,,,,
2008-10-20 00:00,31.373,23.548,37.300,13.19
2008-10-20 01:00,31.387,23.561,37.306,13.18
2008-10-20 02:00,31.395,23.569,37.306,13.17
2008-10-20 03:00,31.420,23.604,37.262,13.09
2008-10-20 04:00,31.438,23.620,37.272,13.08
2008-10-20 05:00,31.435,23.626,37.234,13.04
2008-10-20 06:00,31.420,23.612,37.227,13.05
2008-10-20 07:00,31.412,23.604,37.227,13.06
2008-10-20 08:00,31.416,23.607,37.231,13.06
2008-10-20 09:00,31.411,23.601,37.235,13.07
2008-10-20 10:00,31.404,23.597,37.218,13.06
2008-10-20 11:00,31.410,23.610,37.190,13.02
2008-10-20 13:00,31.410,23.612,37.181,13.01
2008-10-20 14:00,31.431,23.636,37.168,12.97
2008-10-20 15:00,31.457,23.652,37.213,12.99
2008-10-20 16:00,31.462,23.658,37.210,12.98
2008-10-20 17:00,31.479,23.688,37.148,12.89
2008-10-20 18:00,31.487,23.710,37.086,12.81
2008-10-20 19:00,31.495,23.691,37.209,12.94
2008-10-20 20:00,31.483,23.678,37.214,12.96
2008-10-20 21:00,31.481,23.675,37.221,12.97
2008-10-20 22:00,31.465,23.660,37.213,12.98
2008-10-20 23:00,31.468,23.664,37.207,12.97
2008-10-21 00:00,31.442,23.647,37.171,12.96
2008-10-21 01:00,31.431,23.642,37.141,12.94
2008-10-21 02:00,31.433,23.653,37.099,12.89
2008-10-21 03:00,31.434,23.658,37.083,12.87
2008-10-21 04:00,31.465,23.693,37.063,12.81
2008-10-21 05:00,31.504,23.743,37.016,12.71
2008-10-21 06:00,31.500,23.740,37.012,12.71
2008-10-21 07:00,31.497,23.731,37.035,12.74
2008-10-21 08:00,31.472,23.698,37.070,12.81
2008-10-21 09:00,31.467,23.690,37.082,12.83
2008-10-21 10:00,31.457,23.685,37.063,12.82
2008-10-21 11:00,31.451,23.688,37.021,12.78
2008-10-21 12:00,31.447,23.696,36.964,12.72
2008-10-21 13:00,31.460,23.714,36.943,12.68
2008-10-21 14:00,31.436,23.709,36.856,12.61
2008-10-21 15:00,31.421,23.686,36.893,12.67
2008-10-21 16:00,31.414,23.646,37.044,12.85
2008-10-21 17:00,31.423,23.644,37.098,12.90
2008-10-21 18:00,31.423,23.638,37.124,12.93
2008-10-21 19:00,31.431,23.638,37.159,12.96
2008-10-21 20:00,31.431,23.638,37.159,12.96
2008-10-21 21:00,31.424,23.636,37.134,12.94
2008-10-21 22:00,31.414,23.627,37.132,12.95
2008-10-21 23:00,31.410,23.629,37.101,12.92
2008-10-22 00:00,31.406,23.626,37.097,12.92
2008-10-22 01:00,31.412,23.635,37.086,12.90
2008-10-22 02:00,31.422,23.652,37.052,12.85
2008-10-22 03:00,31.430,23.660,37.052,12.84
2008-10-22 04:00,31.246,23.612,36.419,12.34
2008-10-22 05:00,31.300,23.626,36.607,12.49
2008-10-22 06:00,,,,
2008-10-22 07:00,31.407,23.650,36.992,12.80
2008-10-22 08:00,31.416,23.657,37.002,12.80
2008-10-22 09:00,31.416,23.676,36.914,12.70
2008-10-22 10:00,31.405,23.725,36.639,12.40
2008-10-22 11:00,31.353,23.722,36.409,12.20
2008-10-22 12:00,31.401,23.753,36.485,12.23
2008-10-22 13:00,31.406,23.761,36.473,12.21
2008-10-22 14:00,31.441,23.786,36.518,12.22
2008-10-22 15:00,31.461,23.804,36.531,12.21
2008-10-22 16:00,31.472,23.815,36.524,12.19
2008-10-22 17:00,31.478,23.822,36.522,12.18
2008-10-22 18:00,31.508,23.848,36.545,12.17
2008-10-22 19:00,31.631,23.926,36.752,12.26
2008-10-22 20:00,31.674,23.950,36.841,12.31
2008-10-22 21:00,31.694,23.980,36.791,12.23
2008-10-22 22:00,31.711,23.993,36.809,12.23
2008-10-22 23:00,31.676,23.991,36.658,12.10
2008-10-23 00:00,31.666,24.001,36.559,12.00
2008-10-23 01:00,31.667,23.991,36.613,12.06
2008-10-23 02:00,31.585,23.924,36.546,12.08
2008-10-23 03:00,31.572,23.917,36.514,12.06
2008-10-23 04:00,31.544,23.898,36.477,12.05
2008-10-23 05:00,31.504,23.865,36.444,12.06
2008-10-23 06:00,,,,
2008-10-23 07:00,31.507,23.875,36.412,12.02
2008-10-23 08:00,31.497,23.865,36.410,12.03
2008-10-23 09:00,31.519,23.880,36.442,12.04
2008-10-23 10:00,31.511,23.881,36.398,12.00
2008-10-23 11:00,31.540,23.907,36.411,11.98
2008-10-23 12:00,31.472,23.849,36.367,12.01
2008-10-23 13:00,31.487,23.861,36.382,12.01
2008-10-23 14:00,31.467,23.851,36.335,11.98
2008-10-23 15:00,,,,
2008-10-23 16:00,31.365,23.776,36.212,11.96
2008-10-23 17:00,31.337,23.752,36.191,11.97
2008-10-23 18:00,31.306,23.729,36.150,11.96
2008-10-23 19:00,31.297,23.721,36.150,11.97
2008-10-23 20:00,31.349,23.761,36.204,11.97
2008-10-23 21:00,31.385,23.789,36.241,11.97
2008-10-23 22:00,31.368,23.784,36.189,11.93
2008-10-23 23:00,31.354,23.780,36.139,11.89
2008-10-24 00:00,31.350,23.789,36.074,11.82
2008-10-24 01:00,31.361,23.798,36.085,11.82
2008-10-24 02:00,31.411,23.820,36.216,11.91
2008-10-24 03:00,31.413,23.827,36.191,11.88
2008-10-24 04:00,31.409,23.826,36.179,11.87
2008-10-24 05:00,31.422,23.836,36.192,11.87
2008-10-24 06:00,31.454,23.857,36.243,11.89
2008-10-24 07:00,31.478,23.872,36.285,11.91
2008-10-24 08:00,31.462,23.867,36.234,11.87
2008-10-24 09:00,31.453,23.866,36.198,11.84
2008-10-24 10:00,31.461,23.879,36.171,11.80
2008-10-24 11:00,31.473,23.886,36.192,11.81
2008-10-24 12:00,31.514,23.910,36.279,11.86
2008-10-24 13:00,31.535,23.919,36.336,11.90
2008-10-24 14:00,31.552,23.924,36.388,11.94
2008-10-24 15:00,31.556,23.925,36.401,11.95
2008-10-24 16:00,31.513,23.861,36.506,12.12
2008-10-24 17:00,31.468,23.818,36.494,12.16
2008-10-24 18:00,31.449,23.794,36.518,12.21
2008-10-24 19:00,31.445,23.780,36.567,12.27
2008-10-24 20:00,31.444,23.781,36.557,12.26
2008-10-24 21:00,31.446,23.788,36.532,12.23
2008-10-24 22:00,31.458,23.808,36.492,12.17
2008-10-24 23:00,31.475,23.838,36.431,12.08
2008-10-25 00:00,31.506,23.877,36.393,12.00
2008-10-25 01:00,31.519,23.895,36.372,11.96
2008-10-25 02:00,31.529,23.901,36.391,11.97
2008-10-25 03:00,31.459,23.817,36.458,12.13
2008-10-25 04:00,31.450,23.806,36.466,12.15
2008-10-25 05:00,31.436,23.799,36.434,12.13
2008-10-25 06:00,31.435,23.820,36.328,12.01
2008-10-25 07:00,31.431,23.825,36.289,11.97
2008-10-25 08:00,31.429,23.823,36.287,11.97
2008-10-25 09:00,31.446,23.840,36.287,11.95
2008-10-25 10:00,31.450,23.845,36.282,11.94
2008-10-25 11:00,31.444,23.840,36.276,11.94
2008-10-25 12:00,31.448,23.847,36.263,11.92
2008-10-25 13:00,31.445,23.843,36.268,11.93
2008-10-25 14:00,31.440,23.836,36.281,11.95
2008-10-25 15:00,31.437,23.828,36.304,11.98
2008-10-25 16:00,31.435,23.822,36.319,12.00
2008-10-25 17:00,31.429,23.810,36.348,12.04
2008-10-25 18:00,31.428,23.802,36.382,12.08
2008-10-25 19:00,,,,
2008-10-25 20:00,31.428,23.793,36.426,12.13
2008-10-25 21:00,31.434,23.796,36.441,12.14
2008-10-25 22:00,31.444,23.803,36.451,12.14
2008-10-25 23:00,31.442,23.804,36.441,12.13
2008-10-26 00:00,,,,
2008-10-26 01:00,,,,
2008-10-26 02:00,31.435,23.798,36.433,12.13
2008-10-26 03:00,31.438,23.800,36.436,12.13
2008-10-26 04:00,31.451,23.812,36.441,12.12
2008-10-26 05:00,,,,
2008-10-26 06:00,31.493,23.851,36.459,12.09
2008-10-26 07:00,31.540,23.893,36.481,12.06
2008-10-26 08:00,,,,
2008-10-26 09:00,31.558,23.918,36.447,12.00
2008-10-26 10:00,31.558,23.916,36.456,12.01
2008-10-26 11:00,31.562,23.915,36.478,12.03
2008-10-26 12:00,31.559,23.909,36.492,12.05
2008-10-26 13:00,31.539,23.890,36.489,12.07
2008-10-26 14:00,31.544,23.888,36.520,12.10
2008-10-26 15:00,31.528,23.859,36.583,12.19